This is the latest recevied weather packets stored in our database for station/object DB0LS-15. If no packets are shown the sender has not sent any weather packets the latest 10 day(s).
| Time | Temp. | Humidity | Pressure | Rain* | Wind** | Luminosity | Snow |
|---|---|---|---|---|---|---|---|
| 1777963554 | 13.89° C | 93% | 991.5 hPa | 0.51 mm | - | - | - |
| 1777962950 | 13.89° C | 93% | 991.7 hPa | 0.25 mm | - | - | - |
| 1777962346 | 13.89° C | 92% | 991.6 hPa | 0.25 mm | - | - | - |
| 1777961743 | 13.89° C | 92% | 991.6 hPa | 0.25 mm | - | - | - |
| 1777961139 | 13.89° C | 91% | 991.6 hPa | 0 mm | - | - | - |
| 1777960535 | 13.89° C | 90% | 991.5 hPa | 0 mm | - | - | - |
| 1777959931 | 13.89° C | 89% | 991.4 hPa | 0 mm | - | - | - |
| 1777959328 | 15° C | 86% | 991.4 hPa | 0 mm | - | - | - |
| 1777958724 | 15° C | 84% | 991.1 hPa | 0 mm | - | - | - |
| 1777958120 | 15° C | 84% | 991.2 hPa | 0 mm | - | - | - |
| 1777957516 | 14.44° C | 85% | 991.1 hPa | 0 mm | - | - | - |
| 1777956973 | 14.44° C | 86% | 991.1 hPa | 0 mm | - | - | - |
| 1777956369 | 15° C | 83% | 990.9 hPa | 0 mm | - | - | - |
| 1777955765 | 15° C | 82% | 991.1 hPa | 0 mm | - | - | - |
| 1777955161 | 15° C | 83% | 991 hPa | 0 mm | - | - | - |
| 1777954557 | 14.44° C | 84% | 991.2 hPa | 0 mm | - | - | - |
| 1777953954 | 13.89° C | 87% | 991.3 hPa | 0 mm | - | - | - |
| 1777953350 | 13.89° C | 87% | 991.2 hPa | 0 mm | - | - | - |
| 1777952746 | 15° C | 81% | 991.3 hPa | 0 mm | - | - | - |
| 1777952142 | 15° C | 81% | 991.4 hPa | 0 mm | - | - | - |
| 1777951539 | 15° C | 81% | 991.4 hPa | 0 mm | - | - | - |
| 1777950935 | 15° C | 81% | 991.5 hPa | 0 mm | - | - | - |
| 1777950331 | 14.44° C | 83% | 991.6 hPa | 0 mm | - | - | - |
| 1777949727 | 14.44° C | 84% | 991.7 hPa | 0 mm | - | - | - |
| 1777949123 | 14.44° C | 84% | 991.8 hPa | 0 mm | - | - | - |
* Rain latest hour (hover to see other rain measurements)
** Current wind speed in m/s (hover to see current wind gust speed)